Location: Qazi Observatory
(41.6337°N, 88.1517°W)
Time: 09:12:02
(UTC-05:00)

Amateur Radio Satellites - All Passes

Search period start: 27 May 2016 08:42
Search period end: 28 May 2016 08:42
Location: Qazi Observatory, 41.6337°N, 88.1517°W

Satellite Date Start Highest point End Downlink Frequencies (MHz)
Time Altitude Azimuth
BRITE-PL 27 May 08:48:32 08:50:54 13° 301° (WNW) 08:53:14 437.365/2234.400
UWE-3 27 May 08:49:51 08:51:21 12° 90° (E) 08:52:52 435.000/436.395/437.385
PCSat 27 May 08:50:29 08:53:44 16° 104° (ESE) 08:57:00 145.827
SO-50 27 May 08:51:19 08:55:38 34° 48° (NE) 08:59:48 436.795
CUTE-I 27 May 08:51:55 08:55:17 17° 299° (WNW) 08:58:40 437.470
CINEMA 3 27 May 09:01:49 09:06:01 80° 104° (ESE) 09:10:09 145.822/145.860
CANX-2 27 May 09:08:27 09:12:45 78° 282° (WNW) 09:17:01 2200.000
O/OREOS (USA 219) 27 May 09:10:51 09:14:43 28° 104° (ESE) 09:18:36 437.305
SEEDS 27 May 09:12:09 09:16:25 73° 102° (ESE) 09:20:40 437.485
ANTELSAT 27 May 09:12:50 09:15:12 14° 64° (ENE) 09:17:32 437.575/2403.000
PRISM 27 May 09:15:23 09:18:52 26° 264° (W) 09:22:23 437.425
GOMX 1 27 May 09:15:56 09:17:59 13° 300° (WNW) 09:19:59 467.674
CUTE 1.7 + AOD 2 27 May 09:36:00 09:40:04 43° 288° (WNW) 09:44:07 437.475
Oscar 11 27 May 09:38:01 09:41:54 31° 96° (E) 09:45:47 145.826/435.025
AUBIESAT-1 27 May 09:39:28 09:42:33 37° 293° (WNW) 09:45:37 437.475
M-CUBED/EXP-1 PRIME 27 May 09:46:03 09:48:47 24° 296° (WNW) 09:51:30 437.505
ZACube-1 27 May 09:51:10 09:55:05 38° 98° (E) 09:59:03 437.345
CUBEBUG 2 27 May 09:54:27 09:58:38 86° 281° (W) 10:02:51 437.445
COMPASS 1 27 May 09:59:21 10:03:24 45° 287° (WNW) 10:07:25 437.405
GONETS M04 27 May 10:00:58 10:09:31 64° 268° (W) 10:18:03
AAUSAT CUBESAT 2 27 May 10:02:17 10:06:23 52° 286° (WNW) 10:10:28 437.432
HUMSAT D 27 May 10:04:55 10:06:52 13° 91° (E) 10:08:49 437.325/437.525
AIST 1 27 May 10:05:58 10:07:24 11° 277° (W) 10:08:50
UNISAT 6 27 May 10:05:58 10:10:13 52° 73° (ENE) 10:14:24 437.425
Cosmos 2499 27 May 10:13:25 10:22:02 82° 265° (W) 10:30:55 435.465 / 435.565
TIGRISAT 27 May 10:13:37 10:17:55 60° 74° (ENE) 10:22:09 435.000
HO-68 27 May 10:16:41 10:23:14 40° 296° (WNW) 10:29:48 435.675
NANOSAT C BR1 27 May 10:17:26 10:19:16 13° 63° (ENE) 10:21:05 145.865
UWE-3 27 May 10:24:05 10:28:10 57° 286° (WNW) 10:32:19 435.000/436.395/437.385
FUNcube-1 27 May 10:29:20 10:33:32 81° 282° (WNW) 10:37:46 145.935
PCSat 27 May 10:31:07 10:36:30 70° 301° (WNW) 10:41:57 145.827
SO-50 27 May 10:31:58 10:36:01 30° 247° (WSW) 10:39:57 436.795
DELFI C3 27 May 10:35:51 10:39:53 68° 101° (ESE) 10:43:54 145.870
ANTELSAT 27 May 10:47:12 10:51:29 54° 259° (W) 10:55:43 437.575/2403.000
O/OREOS (USA 219) 27 May 10:50:03 10:54:03 29° 301° (WNW) 10:58:02 437.305
SEEDS 27 May 10:50:25 10:51:31 11° 298° (WNW) 10:52:37 437.485
DUCHIFAT 1 27 May 10:54:08 10:57:46 29° 69° (ENE) 11:01:24 145.980
BEESAT 3 27 May 11:04:53 11:07:58 22° 113° (ESE) 11:11:04 437.485
ESTCUBE 1 27 May 11:14:01 11:16:39 15° 91° (E) 11:19:16 437.505/2401.250
BUGSAT 1 27 May 11:14:16 11:17:36 23° 68° (ENE) 11:20:55 437.445
Oscar 11 27 May 11:14:26 11:17:53 23° 293° (WNW) 11:21:19 145.826/435.025
DANDE 27 May 11:20:42 11:23:59 16° 77° (ENE) 11:27:42 436.750
50 SAT 27 May 11:22:27 11:23:33 11° 91° (E) 11:24:38 437.505
CUSAT 1 27 May 11:26:59 11:32:51 42° 88° (E) 11:39:53 437.405
ZACube-1 27 May 11:28:14 11:31:07 18° 294° (WNW) 11:34:02 437.345
POPSAT HIP 1 27 May 11:31:08 11:35:23 83° 74° (ENE) 11:39:37 437.405
QB50P1 27 May 11:31:33 11:35:49 85° 77° (ENE) 11:40:04 145.935-145.965
CUBEBUG 1 27 May 11:31:45 11:34:21 15° 92° (E) 11:36:56 437.445
QB50P2 27 May 11:33:44 11:38:00 86° 261° (W) 11:42:15 145.880/145.840
DX 1 27 May 11:34:11 11:36:08 13° 91° (E) 11:38:06 434.975-435.025
POLYITAN 1 27 May 11:36:12 11:40:27 84° 254° (WSW) 11:44:42 437.675
VELOX 1 27 May 11:37:27 11:40:23 17° 93° (E) 11:43:18 145.980
JAS-2 27 May 11:38:02 11:44:10 29° 60° (ENE) 11:50:34 435.910
HUMSAT D 27 May 11:38:44 11:42:46 52° 287° (WNW) 11:46:51 437.325/437.525
UNISAT 6 27 May 11:44:58 11:47:14 14° 269° (W) 11:49:28 437.425
NANOSAT C BR1 27 May 11:50:18 11:54:29 62° 259° (WSW) 11:58:41 145.865
TIGRISAT 27 May 11:53:18 11:54:58 12° 269° (W) 11:56:38 435.000
SPROUT 27 May 12:01:11 12:02:47 12° 90° (E) 12:04:24 437.525
GONETS M04 27 May 12:03:04 12:04:26 10° 288° (WNW) 12:05:49
BEESAT 2 27 May 12:06:01 12:09:55 60° 119° (ESE) 12:13:51 435.950
Cosmos 2499 27 May 12:09:00 12:13:52 17° 283° (WNW) 12:18:50 435.465 / 435.565
AISAT 27 May 12:12:31 12:16:44 43° 99° (E) 12:20:55 437.250
DELFI C3 27 May 12:13:17 12:14:11 11° 298° (WNW) 12:15:03 145.870
PCSat 27 May 12:18:11 12:20:56 14° 322° (NW) 12:23:41 145.827
UKube-1 27 May 12:22:27 12:26:25 35° 98° (E) 12:30:22 .
DUCHIFAT 1 27 May 12:30:01 12:33:26 24° 265° (W) 12:36:53 145.980
BEESAT 3 27 May 12:41:54 12:45:29 33° 310° (NW) 12:49:06 437.485
BUGSAT 1 27 May 12:49:06 12:52:50 30° 263° (W) 12:56:32 437.445
ESTCUBE 1 27 May 12:49:20 12:53:47 53° 287° (WNW) 12:58:11 437.505/2401.250
50 SAT 27 May 12:53:57 12:57:33 48° 286° (WNW) 13:01:09 437.505
Oscar 19 27 May 12:58:59 13:03:57 47° 70° (ENE) 13:08:56 437.125/150
DANDE 27 May 13:00:03 13:05:26 79° 280° (W) 13:12:38 436.750
CUBEBUG 1 27 May 13:06:41 13:10:54 47° 288° (WNW) 13:15:04 437.445
DX 1 27 May 13:08:24 13:12:42 57° 287° (WNW) 13:16:57 434.975-435.025
CUSAT 1 27 May 13:09:05 13:15:01 38° 291° (WNW) 13:22:05 437.405
VELOX 1 27 May 13:12:52 13:17:04 43° 289° (WNW) 13:21:14 145.980
Gurwin Techsat 1B 27 May 13:19:46 13:24:25 32° 67° (ENE) 13:29:05 435.225
JAS-2 27 May 13:21:15 13:28:30 66° 259° (W) 13:36:19 435.910
Cosmos 2491 27 May 13:21:32 13:24:52 12° 55° (NE) 13:28:10 435.465 / 435.565
SPROUT 27 May 13:34:55 13:39:07 59° 286° (WNW) 13:43:17 437.525
ITAMSAT 1 27 May 13:41:24 13:45:09 21° 63° (ENE) 13:48:54 435.822/435.867
BEESAT 2 27 May 13:45:37 13:48:08 16° 318° (NW) 13:50:40 435.950
AO-7 27 May 13:46:54 13:52:38 21° 51° (NE) 13:58:24 29.400- 29.500
AISAT 27 May 13:49:51 13:52:53 19° 296° (WNW) 13:55:55 437.250
UKube-1 27 May 13:58:58 14:02:15 21° 294° (WNW) 14:05:31 .
TISAT 1 27 May 14:00:00 14:04:11 71° 102° (ESE) 14:08:19 437.305
AIST 2 27 May 14:13:04 14:17:11 85° 122° (ESE) 14:21:21 435.215
AO-85 27 May 14:17:41 14:21:49 28° 45° (NE) 14:25:37 145.980
SWISSCUBE 27 May 14:34:47 14:39:08 33° 97° (E) 14:43:27 437.505
Oscar 19 27 May 14:39:35 14:43:29 21° 267° (W) 14:47:26 437.125/150
ITUPSAT 1 27 May 14:40:48 14:45:10 34° 97° (E) 14:49:31 437.325
DANDE 27 May 14:46:51 14:49:58 14° 306° (NW) 14:53:26 436.750
Gurwin Techsat 1B 27 May 14:59:33 15:04:18 33° 264° (W) 15:09:05 435.225
BEESAT 27 May 15:04:15 15:09:01 60° 101° (E) 15:13:44 436.000
JAS-2 27 May 15:12:58 15:14:59 11° 279° (W) 15:17:02 435.910
Cosmos 2491 27 May 15:15:04 15:23:46 63° 78° (ENE) 15:32:22 435.465 / 435.565
YUBILEINY 27 May 15:17:08 15:23:59 27° 82° (E) 15:30:50 435.215
ITAMSAT 1 27 May 15:19:11 15:24:13 52° 259° (W) 15:29:17 435.822/435.867
AO-7 27 May 15:36:00 15:44:17 86° 70° (ENE) 15:52:39 29.400- 29.500
TISAT 1 27 May 15:38:11 15:39:14 11° 299° (WNW) 15:40:18 437.305
AIST 2 27 May 15:54:11 15:56:16 13° 321° (NW) 15:58:20 435.215
AO-85 27 May 15:58:09 16:02:20 35° 246° (WSW) 16:06:10 145.980
KKS-1 27 May 16:03:09 16:07:03 30° 97° (E) 16:10:56 437.445
SWISSCUBE 27 May 16:12:47 16:16:47 27° 293° (WNW) 16:20:47 437.505
MOZHAYETS 4 27 May 16:17:07 16:21:19 33° 97° (E) 16:25:30
ITUPSAT 1 27 May 16:18:51 16:22:52 27° 294° (WNW) 16:26:51 437.325
Cosmos 2504 27 May 16:26:57 16:31:15 17° 78° (ENE) 16:35:41 435.465 / 435.565
HORYU 2 27 May 16:27:36 16:31:52 51° 72° (ENE) 16:36:10 437.375
STARS 27 May 16:39:08 16:43:12 37° 98° (E) 16:47:14 437.465
RS-15 27 May 16:42:27 16:52:37 41° 107° (ESE) 17:03:16 29.354- 29.394
BRITE-PL 27 May 16:42:38 16:45:30 14° 59° (ENE) 16:48:21 437.365/2234.400
BEESAT 27 May 16:43:25 16:46:18 16° 298° (WNW) 16:49:11 436.000
CUTE-I 27 May 16:55:25 16:58:28 16° 60° (ENE) 17:01:32 437.470
GOMX 1 27 May 17:09:16 17:10:56 11° 59° (ENE) 17:12:35 467.674
YUBILEINY 27 May 17:11:27 17:20:03 65° 281° (WNW) 17:28:43 435.215
Cosmos 2491 27 May 17:12:55 17:19:55 28° 278° (W) 17:26:53 435.465 / 435.565
AO-7 27 May 17:32:27 17:38:00 19° 269° (W) 17:43:37 29.400- 29.500
PCSat 27 May 17:36:29 17:40:09 18° 42° (NE) 17:43:47 145.827
LilacSat-2 27 May 17:39:42 17:42:51 25° 70° (ENE) 17:46:00 437.200
KKS-1 27 May 17:39:51 17:43:31 26° 293° (WNW) 17:47:08 437.445
NOAA 15 27 May 17:41:54 17:47:05 57° 72° (ENE) 17:52:18 137.62
CUBESAT XI-V 27 May 17:42:09 17:46:20 30° 96° (E) 17:50:28 437.345
NOAA 18 27 May 17:44:02 17:49:18 52° 70° (ENE) 17:54:35 137.9125
Cubesat XI-IV 27 May 17:46:39 17:51:37 43° 69° (ENE) 17:56:38 437.490
MOZHAYETS 4 27 May 17:54:33 17:58:19 25° 293° (WNW) 18:02:05
DOVE 4 27 May 17:57:11 18:00:02 15° 63° (ENE) 18:02:50 437.250
HORYU 2 27 May 18:06:14 18:08:44 15° 268° (W) 18:11:13 437.375
STARS 27 May 18:16:05 18:19:19 21° 295° (WNW) 18:22:33 437.465
Cosmos 2504 27 May 18:16:16 18:23:29 81° 278° (W) 18:31:09 435.465 / 435.565
BRITE-PL 27 May 18:17:28 18:23:07 88° 77° (ENE) 18:28:51 437.365/2234.400
CUTE-I 27 May 18:32:35 18:37:53 74° 257° (WSW) 18:43:13 437.470
GOMX 1 27 May 18:42:39 18:48:08 77° 76° (ENE) 18:53:32 467.674
AUBIESAT-1 27 May 18:51:52 18:54:54 21° 63° (ENE) 18:57:47 437.475
RS-15 27 May 18:53:15 19:04:31 62° 311° (NW) 19:16:29 29.354- 29.394
CUTE 1.7 + AOD 2 27 May 18:55:24 18:57:12 13° 63° (ENE) 18:59:00 437.475
M-CUBED/EXP-1 PRIME 27 May 18:57:54 19:01:31 29° 66° (ENE) 19:04:54 437.505
HO-68 27 May 18:58:08 19:04:15 32° 61° (ENE) 19:10:23 435.675
STRAND 1 27 May 19:00:10 19:03:17 16° 91° (E) 19:06:23 437.568
LilacSat-2 27 May 19:14:07 19:17:07 22° 265° (W) 19:20:07 437.200
YUBILEINY 27 May 19:15:23 19:18:51 13° 304° (NW) 19:22:20 435.215
COMPASS 1 27 May 19:17:41 19:18:55 11° 62° (ENE) 19:20:08 437.405
PCSat 27 May 19:18:47 19:24:15 85° 242° (WSW) 19:29:40 145.827
CUBESAT XI-V 27 May 19:19:36 19:23:37 28° 292° (WNW) 19:27:35 437.345
O/OREOS (USA 219) 27 May 19:19:56 19:24:22 55° 65° (ENE) 19:28:44 437.305
BEESAT 3 27 May 19:21:47 19:24:29 17° 43° (NE) 19:27:10 437.485
NOAA 15 27 May 19:23:37 19:27:13 18° 268° (W) 19:30:50 137.62
NOAA 18 27 May 19:26:12 19:30:14 21° 267° (W) 19:34:18 137.9125
Cubesat XI-IV 27 May 19:27:35 19:31:51 24° 266° (W) 19:36:09 437.490
DOVE 4 27 May 19:31:56 19:37:10 74° 258° (WSW) 19:42:14 437.250
UWE-3 27 May 19:48:09 19:49:16 11° 62° (ENE) 19:50:23 435.000/436.395/437.385
BRITE-PL 27 May 19:59:46 20:02:15 13° 273° (W) 20:04:44 437.365/2234.400
CANX-2 27 May 20:01:03 20:05:14 75° 76° (ENE) 20:09:28 2200.000
CINEMA 3 27 May 20:02:54 20:07:39 75° 76° (ENE) 20:12:13 145.822/145.860
SEEDS 27 May 20:03:51 20:07:52 49° 73° (ENE) 20:11:56 437.485
Cosmos 2504 27 May 20:14:32 20:18:18 14° 301° (WNW) 20:22:11 435.465 / 435.565
GOMX 1 27 May 20:23:51 20:26:42 14° 271° (W) 20:29:31 467.674
BEESAT 2 27 May 20:23:58 20:27:43 38° 51° (NE) 20:31:27 435.950
AUBIESAT-1 27 May 20:25:30 20:29:15 33° 257° (WSW) 20:32:46 437.475
CUTE 1.7 + AOD 2 27 May 20:28:22 20:32:31 61° 259° (W) 20:36:43 437.475
M-CUBED/EXP-1 PRIME 27 May 20:32:39 20:36:02 23° 258° (WSW) 20:39:15 437.505
Oscar 11 27 May 20:33:09 20:36:41 25° 68° (ENE) 20:40:14 145.826/435.025
STRAND 1 27 May 20:37:46 20:42:52 62° 287° (WNW) 20:47:56 437.568
HO-68 27 May 20:44:44 20:51:39 52° 259° (W) 20:58:37 435.675
ZACube-1 27 May 20:47:18 20:51:02 31° 70° (ENE) 20:54:43 437.345
COMPASS 1 27 May 20:49:47 20:53:54 68° 259° (W) 20:58:03 437.405
AAUSAT CUBESAT 2 27 May 20:52:13 20:56:20 80° 258° (WSW) 21:00:30 437.432
CUBEBUG 2 27 May 20:52:22 20:56:46 80° 75° (ENE) 21:01:03 437.445
AIST 1 27 May 20:55:31 20:59:29 34° 91° (E) 21:03:29
PRISM 27 May 20:56:03 20:59:59 39° 99° (E) 21:03:54 437.425
BEESAT 3 27 May 20:58:37 21:02:28 51° 242° (WSW) 21:06:17 437.485
O/OREOS (USA 219) 27 May 21:00:59 21:03:14 14° 261° (W) 21:05:30 437.305
Cosmos 2499 27 May 21:02:41 21:05:51 13° 75° (ENE) 21:09:05 435.465 / 435.565
PCSat 27 May 21:05:33 21:06:45 11° 259° (WSW) 21:07:57 145.827
GONETS M04 27 May 21:06:37 21:14:04 32° 84° (E) 21:21:27
RS-15 27 May 21:10:39 21:20:10 27° 341° (NNW) 21:30:02 29.354- 29.394
ISS 27 May 21:11:59 21:14:56 33° 137° (SE) 21:17:55 145.825
UWE-3 27 May 21:20:53 21:25:11 72° 258° (WSW) 21:29:25 435.000/436.395/437.385
DELFI C3 27 May 21:21:56 21:25:36 38° 72° (ENE) 21:29:20 145.870
FUNcube-1 27 May 21:24:46 21:28:59 78° 76° (ENE) 21:33:10 145.935
SEEDS 27 May 21:41:46 21:43:53 14° 269° (W) 21:45:59 437.485
CINEMA 3 27 May 21:43:58 21:45:12 11° 270° (W) 21:46:26 145.822/145.860
DANDE 27 May 21:56:46 22:02:46 21° 60° (ENE) 22:08:28 436.750
UNISAT 6 27 May 22:00:30 22:00:48 10° 89° (E) 22:01:07 437.425
CUSAT 1 27 May 22:01:58 22:08:59 35° 68° (ENE) 22:14:58 437.405
BEESAT 2 27 May 22:02:25 22:05:19 19° 248° (WSW) 22:08:11 435.950
TIGRISAT 27 May 22:06:52 22:08:22 12° 90° (E) 22:09:53 435.000
Oscar 11 27 May 22:09:00 22:12:43 28° 264° (W) 22:16:27 145.826/435.025
ESTCUBE 1 27 May 22:14:11 22:16:48 15° 63° (ENE) 22:19:24 437.505/2401.250
ZACube-1 27 May 22:24:03 22:27:21 22° 266° (W) 22:30:36 437.345
CUBEBUG 1 27 May 22:28:24 22:30:50 15° 63° (ENE) 22:33:17 437.445
HUMSAT D 27 May 22:29:49 22:33:54 76° 259° (W) 22:37:59 437.325/437.525
DX 1 27 May 22:30:24 22:32:22 13° 62° (ENE) 22:34:20 434.975-435.025
PRISM 27 May 22:32:09 22:35:01 18° 295° (WNW) 22:37:51 437.425
PHONESAT 2.4 27 May 22:32:35 22:35:25 31° 159° (SSE) 22:38:15 2401.200-2431.200
AIST 1 27 May 22:33:52 22:37:10 20° 288° (WNW) 22:40:29
AIST 2 27 May 22:34:15 22:38:21 57° 54° (NE) 22:42:26 435.215
VELOX 1 27 May 22:35:16 22:38:10 17° 64° (ENE) 22:41:04 145.980
ANTELSAT 27 May 22:38:42 22:42:25 28° 96° (E) 22:46:11 437.575/2403.000
ISS 27 May 22:48:21 22:51:22 33° 334° (NNW) 22:54:23 145.825
Cosmos 2499 27 May 22:50:14 22:57:27 82° 96° (E) 23:05:15 435.465 / 435.565
SPROUT 27 May 22:56:18 22:57:10 11° 61° (ENE) 22:58:02 437.525
DELFI C3 27 May 22:58:13 23:00:39 16° 268° (W) 23:03:05 145.870
GONETS M04 27 May 23:01:47 23:10:23 56° 283° (WNW) 23:19:00
AISAT 27 May 23:09:52 23:14:02 40° 71° (ENE) 23:18:13 437.250
UKube-1 27 May 23:17:08 23:20:56 31° 69° (ENE) 23:24:47 .
POPSAT HIP 1 27 May 23:17:32 23:19:27 13° 91° (E) 23:21:20 437.405
QB50P1 27 May 23:17:49 23:19:51 13° 91° (E) 23:21:52 145.935-145.965
QB50P2 27 May 23:19:51 23:22:16 15° 92° (E) 23:24:40 145.880/145.840
POLYITAN 1 27 May 23:22:16 23:24:44 15° 92° (E) 23:27:11 437.675
RS-15 27 May 23:28:35 23:38:15 26° 17° (NNE) 23:48:04 29.354- 29.394
50 SAT 27 May 23:31:57 23:35:34 74° 77° (ENE) 23:39:14 437.505
UNISAT 6 27 May 23:33:41 23:37:58 70° 285° (WNW) 23:42:18 437.425
NANOSAT C BR1 27 May 23:35:15 23:38:20 20° 94° (E) 23:41:25 145.865
DANDE 27 May 23:38:20 23:46:52 87° 81° (E) 23:54:30 436.750
TIGRISAT 27 May 23:41:12 23:45:26 61° 286° (WNW) 23:49:44 435.000
CUSAT 1 27 May 23:44:00 23:51:19 47° 270° (W) 23:57:25 437.405
ESTCUBE 1 27 May 23:48:42 23:53:08 57° 260° (W) 23:57:37 437.505/2401.250
CUBEBUG 1 28 May 00:02:16 00:06:38 57° 260° (W) 00:11:02 437.445
DX 1 28 May 00:03:39 00:08:01 66° 259° (WSW) 00:12:23 434.975-435.025
PHONESAT 2.4 28 May 00:08:50 00:11:58 70° 176° (S) 00:15:05 2401.200-2431.200
VELOX 1 28 May 00:09:56 00:14:15 48° 260° (W) 00:18:35 145.980
DUCHIFAT 1 28 May 00:12:59 00:17:03 49° 100° (E) 00:21:06 145.980
AIST 2 28 May 00:14:16 00:16:22 14° 251° (WSW) 00:18:28 435.215
ANTELSAT 28 May 00:15:30 00:19:03 26° 292° (WNW) 00:22:38 437.575/2403.000
ISS 28 May 00:26:35 00:28:33 15° 354° (N) 00:30:31 145.825
SPROUT 28 May 00:28:11 00:32:30 78° 259° (W) 00:36:48 437.525
BUGSAT 1 28 May 00:30:24 00:34:07 35° 98° (E) 00:37:47 437.445
JAS-2 28 May 00:32:44 00:38:11 22° 88° (E) 00:43:12 435.910
SO-50 28 May 00:45:00 00:49:54 83° 122° (ESE) 00:54:50 436.795
Cosmos 2499 28 May 00:46:46 00:51:41 19° 298° (WNW) 00:56:52 435.465 / 435.565
AISAT 28 May 00:47:25 00:50:39 19° 267° (W) 00:53:54 437.250
POPSAT HIP 1 28 May 00:51:28 00:55:33 53° 287° (WNW) 00:59:37 437.405
TISAT 1 28 May 00:51:32 00:55:38 53° 73° (ENE) 00:59:45 437.305
QB50P1 28 May 00:51:51 00:55:56 51° 287° (WNW) 01:00:00 145.935-145.965
UKube-1 28 May 00:53:31 00:57:00 24° 265° (W) 01:00:31 .
QB50P2 28 May 00:54:17 00:58:19 46° 288° (WNW) 01:02:20 145.880/145.840
POLYITAN 1 28 May 00:56:45 01:00:46 45° 288° (WNW) 01:04:46 437.675
GONETS M04 28 May 01:07:53 01:09:30 11° 307° (NW) 01:11:08
NANOSAT C BR1 28 May 01:10:22 01:14:09 34° 290° (WNW) 01:17:55 145.865
Oscar 19 28 May 01:11:36 01:14:43 16° 91° (E) 01:17:48 437.125/150
DANDE 28 May 01:22:54 01:28:34 21° 280° (W) 01:33:55 436.750
YUBILEINY 28 May 01:27:24 01:31:07 13° 56° (NE) 01:34:48 435.215
Gurwin Techsat 1B 28 May 01:37:44 01:39:29 12° 88° (E) 01:41:16 435.225
SWISSCUBE 28 May 01:41:21 01:45:45 39° 70° (ENE) 01:50:10 437.505
RS-15 28 May 01:42:10 01:54:16 57° 47° (NE) 02:06:20 29.354- 29.394
PHONESAT 2.4 28 May 01:45:32 01:48:36 53° 193° (SSW) 01:51:40 2401.200-2431.200
ITUPSAT 1 28 May 01:47:38 01:52:05 40° 70° (ENE) 01:56:32 437.325
DUCHIFAT 1 28 May 01:50:01 01:52:21 15° 296° (WNW) 01:54:40 145.980
ISS 28 May 02:03:35 02:05:56 18° 14° (NNE) 02:08:18 145.825
BUGSAT 1 28 May 02:06:26 02:09:15 19° 294° (WNW) 02:12:03 437.445
BEESAT 28 May 02:10:39 02:15:22 71° 74° (ENE) 02:20:08 436.000
JAS-2 28 May 02:16:28 02:23:56 70° 288° (WNW) 02:30:34 435.910
Cosmos 2491 28 May 02:25:53 02:29:26 13° 74° (ENE) 02:32:59 435.465 / 435.565
SO-50 28 May 02:27:43 02:31:00 18° 321° (NW) 02:34:19 436.795
TISAT 1 28 May 02:29:34 02:31:35 13° 269° (W) 02:33:38 437.305
Oscar 19 28 May 02:49:21 02:54:27 62° 287° (WNW) 02:59:30 437.125/150
KKS-1 28 May 03:01:21 03:05:13 29° 68° (ENE) 03:09:05 437.445
Gurwin Techsat 1B 28 May 03:14:45 03:20:06 85° 285° (WNW) 03:25:25 435.225
MOZHAYETS 4 28 May 03:19:11 03:23:13 32° 69° (ENE) 03:27:18
SWISSCUBE 28 May 03:20:01 03:23:40 22° 266° (W) 03:27:21 437.505
YUBILEINY 28 May 03:21:09 03:29:52 66° 79° (E) 03:38:35 435.215
PHONESAT 2.4 28 May 03:22:50 03:24:59 17° 208° (SSW) 03:27:07 2401.200-2431.200
ITUPSAT 1 28 May 03:26:26 03:30:03 21° 266° (W) 03:33:42 437.325
ITAMSAT 1 28 May 03:31:35 03:36:43 54° 101° (E) 03:41:49 435.822/435.867
STARS 28 May 03:35:52 03:39:51 34° 70° (ENE) 03:43:50 437.465
AO-7 28 May 03:38:05 03:45:03 28° 95° (E) 03:51:57 29.400- 29.500
ISS 28 May 03:39:36 03:42:51 67° 32° (NNE) 03:46:05 145.825
BEESAT 28 May 03:51:48 03:53:39 12° 270° (W) 03:55:30 436.000
RS-15 28 May 03:55:08 04:06:38 49° 251° (WSW) 04:18:05 29.354- 29.394
JAS-2 28 May 04:03:41 04:07:28 15° 309° (NW) 04:11:06 435.910
Cosmos 2504 28 May 04:07:24 04:15:12 40° 73° (ENE) 04:23:19 435.465 / 435.565
Cosmos 2491 28 May 04:15:49 04:24:35 72° 94° (E) 04:33:22 435.465 / 435.565
KKS-1 28 May 04:37:58 04:41:44 27° 264° (W) 04:45:32 437.445
CUBESAT XI-V 28 May 04:45:35 04:49:40 31° 69° (ENE) 04:53:47 437.345
MOZHAYETS 4 28 May 04:56:42 05:00:25 25° 266° (W) 05:04:10
Gurwin Techsat 1B 28 May 04:57:13 04:59:13 12° 302° (WNW) 05:01:13 435.225
ITAMSAT 1 28 May 05:12:01 05:15:46 20° 298° (WNW) 05:19:30 435.822/435.867
STARS 28 May 05:12:51 05:16:16 22° 266° (W) 05:19:42 437.465
ISS 28 May 05:17:08 05:18:56 14° 229° (SW) 05:20:44 145.825
YUBILEINY 28 May 05:19:02 05:25:56 27° 278° (W) 05:32:52 435.215
AO-7 28 May 05:30:04 05:38:19 65° 293° (WNW) 05:46:33 29.400- 29.500
HORYU 2 28 May 05:54:28 05:58:56 81° 284° (WNW) 06:03:22 437.375
NOAA 15 28 May 05:57:41 06:01:37 21° 93° (E) 06:05:31 137.62
Cosmos 2504 28 May 06:00:43 06:08:39 47° 271° (W) 06:16:57 435.465 / 435.565
Cubesat XI-IV 28 May 06:04:40 06:08:02 17° 91° (E) 06:11:23 437.490
NOAA 18 28 May 06:06:32 06:10:37 21° 93° (E) 06:14:42 137.9125
AO-85 28 May 06:10:36 06:16:02 74° 120° (ESE) 06:21:23 145.980
Cosmos 2491 28 May 06:15:15 06:22:15 26° 294° (WNW) 06:29:17 435.465 / 435.565
STRAND 1 28 May 06:15:59 06:20:02 24° 65° (ENE) 06:24:05 437.568
CUBESAT XI-V 28 May 06:23:02 06:27:01 27° 265° (W) 06:31:02 437.345
BRITE-PL 28 May 06:23:30 06:27:52 28° 93° (E) 06:31:56 437.365/2234.400
GOMX 1 28 May 06:45:59 06:49:26 20° 91° (E) 06:52:44 467.674
LilacSat-2 28 May 06:46:27 06:49:57 35° 98° (E) 06:53:27 437.200
CUTE-I 28 May 06:49:28 06:54:36 43° 99° (E) 06:59:40 437.470
GONETS M04 28 May 07:17:01 07:21:48 15° 58° (ENE) 07:26:32
AO-7 28 May 07:25:02 07:29:31 16° 314° (NW) 07:34:00 29.400- 29.500
DOVE 4 28 May 07:31:42 07:35:26 27° 95° (E) 07:39:01 437.250
NOAA 15 28 May 07:36:33 07:41:40 50° 290° (WNW) 07:46:44 137.62
SO-50 28 May 07:37:32 07:39:58 14° 35° (NE) 07:42:22 436.795
Cubesat XI-IV 28 May 07:43:13 07:48:31 63° 287° (WNW) 07:53:48 437.490
PRISM 28 May 07:45:42 07:49:19 30° 69° (ENE) 07:52:58 437.425
NOAA 18 28 May 07:46:16 07:51:33 52° 290° (WNW) 07:56:52 137.9125
CANX-2 28 May 07:47:34 07:49:34 13° 90° (E) 07:51:34 2200.000
AO-85 28 May 07:52:55 07:57:04 22° 318° (NW) 08:01:08 145.980
STRAND 1 28 May 07:54:09 07:58:57 42° 261° (W) 08:03:47 437.568
CINEMA 3 28 May 07:58:50 08:01:17 15° 92° (E) 08:03:43 145.822/145.860
BRITE-PL 28 May 08:01:49 08:06:21 32° 292° (WNW) 08:10:32 437.365/2234.400
M-CUBED/EXP-1 PRIME 28 May 08:12:00 08:14:00 15° 99° (E) 08:15:59 437.505
HO-68 28 May 08:12:17 08:18:31 31° 96° (E) 08:24:44 435.675
CUTE 1.7 + AOD 2 28 May 08:13:34 08:16:56 22° 94° (E) 08:20:17 437.475
PCSat 28 May 08:21:36 08:23:09 11° 102° (ESE) 08:24:42 145.827
LilacSat-2 28 May 08:21:37 08:23:59 16° 294° (WNW) 08:26:20 437.200
GOMX 1 28 May 08:23:24 08:27:43 37° 290° (WNW) 08:31:45 467.674
CUTE-I 28 May 08:30:03 08:34:23 25° 295° (WNW) 08:38:42 437.470
COMPASS 1 28 May 08:33:13 08:36:13 19° 93° (E) 08:39:12 437.405
AAUSAT CUBESAT 2 28 May 08:35:28 08:38:03 16° 92° (E) 08:40:38 437.432
